This is the latest recevied weather packets stored in our database for station/object IZ7EXI-13. If no packets are shown the sender has not sent any weather packets the latest 10 day(s).
| Time | Temp. | Humidity | Pressure | Rain* | Wind** | Luminosity | Snow |
|---|---|---|---|---|---|---|---|
| 1788334642 | 29.44° C | 58% | 1019.8 hPa | - | - | - | - |
| 1788333777 | 28.89° C | 63% | 1019.7 hPa | - | - | - | - |
| 1788333775 | 28.89° C | 63% | 1019.7 hPa | - | - | - | - |
| 1788333741 | 28.89° C | 63% | 1019.7 hPa | - | - | - | - |
| 1788332879 | 28.33° C | 65% | 1019.7 hPa | - | - | - | - |
| 1788332841 | 28.33° C | 65% | 1019.7 hPa | - | - | - | - |
| 1788331967 | 27.78° C | 66% | 1019.7 hPa | - | - | - | - |
| 1788331941 | 27.78° C | 66% | 1019.7 hPa | - | - | - | - |
| 1788331040 | 27.78° C | 64% | 1019.8 hPa | - | - | - | - |
| 1788330140 | 27.22° C | 63% | 1019.8 hPa | - | - | - | - |
| 1788329240 | 26.11° C | 63% | 1019.6 hPa | - | - | - | - |
| 1788328340 | 25.56° C | 62% | 1019.7 hPa | - | - | - | - |
| 1788327439 | 25° C | 62% | 1019.6 hPa | - | - | - | - |
| 1788326539 | 25° C | 61% | 1019.5 hPa | - | - | - | - |
| 1788325639 | 25° C | 62% | 1019.4 hPa | - | - | - | - |
| 1788324739 | 25° C | 62% | 1019.2 hPa | - | - | - | - |
| 1788323838 | 24.44° C | 62% | 1019.3 hPa | - | - | - | - |
| 1788322938 | 25° C | 62% | 1019.3 hPa | - | - | - | - |
| 1788322038 | 25° C | 61% | 1019.2 hPa | - | - | - | - |
| 1788321138 | 25° C | 61% | 1019.1 hPa | - | - | - | - |
| 1788320237 | 25° C | 60% | 1019.1 hPa | - | - | - | - |
| 1788319368 | 25° C | 59% | 1019.2 hPa | - | - | - | - |
| 1788319337 | 25° C | 59% | 1019.2 hPa | - | - | - | - |
| 1788318437 | 25° C | 59% | 1019.3 hPa | - | - | - | - |
| 1788317537 | 25° C | 57% | 1019.2 hPa | - | - | - | - |
* Rain since midnight (hover to see other rain measurements)
** Current wind speed in m/s (hover to see current wind gust speed)